TimeCST,TemperatureF,Dew PointF,Humidity,Sea Level PressureIn,VisibilityMPH,Wind Direction,Wind SpeedMPH,Gust SpeedMPH,PrecipitationIn,Events,Conditions,WindDirDegrees,DateUTC
12:11 AM,26.6,21.2,80,29.95,10.0,Calm,Calm,-,N/A,,Clear,0,2011-11-11 06:11:00
12:32 AM,26.6,21.2,80,29.95,10.0,South,3.5,-,N/A,,Clear,190,2011-11-11 06:32:00
12:51 AM,26.6,21.2,80,29.94,10.0,South,3.5,-,N/A,,Clear,190,2011-11-11 06:51:00
1:11 AM,24.8,21.2,86,29.92,10.0,SSE,4.6,-,N/A,,Clear,160,2011-11-11 07:11:00
1:31 AM,24.8,21.2,86,29.91,10.0,South,3.5,-,N/A,,Scattered Clouds,180,2011-11-11 07:31:00
1:51 AM,26.6,21.2,80,29.89,10.0,South,4.6,-,N/A,,Scattered Clouds,170,2011-11-11 07:51:00
2:11 AM,26.6,21.2,80,29.89,10.0,South,5.8,-,N/A,,Clear,180,2011-11-11 08:11:00
2:31 AM,26.6,21.2,80,29.88,10.0,South,5.8,-,N/A,,Clear,170,2011-11-11 08:31:00
2:51 AM,26.6,21.2,80,29.88,10.0,South,5.8,-,N/A,,Mostly Cloudy,180,2011-11-11 08:51:00
3:11 AM,26.6,21.2,80,29.87,10.0,SSE,3.5,-,N/A,,Mostly Cloudy,160,2011-11-11 09:11:00
3:31 AM,26.6,21.2,80,29.86,10.0,Calm,Calm,-,N/A,,Unknown,0,2011-11-11 09:31:00
3:51 AM,26.6,21.2,80,29.85,10.0,Calm,Calm,-,N/A,,Unknown,0,2011-11-11 09:51:00
4:31 AM,28.4,21.2,74,29.84,10.0,Calm,Calm,-,N/A,,Mostly Cloudy,0,2011-11-11 10:31:00
4:51 AM,28.4,23.0,80,29.83,10.0,Calm,Calm,-,N/A,,Mostly Cloudy,0,2011-11-11 10:51:00
5:12 AM,28.4,21.2,74,29.83,10.0,Calm,Calm,-,N/A,,Mostly Cloudy,0,2011-11-11 11:12:00
5:31 AM,28.4,21.2,74,29.82,10.0,Calm,Calm,-,N/A,,Mostly Cloudy,0,2011-11-11 11:31:00
6:12 AM,28.4,21.2,74,29.79,10.0,SE,4.6,-,N/A,,Clear,140,2011-11-11 12:12:00
6:31 AM,30.2,19.4,64,29.78,7.0,SE,5.8,-,N/A,,Clear,140,2011-11-11 12:31:00
6:51 AM,30.2,19.4,64,29.77,10.0,SSE,4.6,-,N/A,,Clear,150,2011-11-11 12:51:00
7:12 AM,30.2,19.4,64,29.77,10.0,SSE,4.6,-,N/A,,Clear,150,2011-11-11 13:12:00
7:31 AM,30.2,17.6,60,29.76,7.0,SSE,4.6,-,N/A,,Clear,150,2011-11-11 13:31:00
7:51 AM,32.0,19.4,60,29.75,10.0,SSE,5.8,-,N/A,,Mostly Cloudy,150,2011-11-11 13:51:00
8:12 AM,32.0,17.6,55,29.74,10.0,SSE,5.8,-,N/A,,Mostly Cloudy,150,2011-11-11 14:12:00
8:31 AM,33.8,19.4,56,29.73,10.0,SSE,5.8,-,N/A,,Mostly Cloudy,160,2011-11-11 14:31:00
9:11 AM,37.4,19.4,48,29.71,10.0,South,11.5,19.6,N/A,,Overcast,180,2011-11-11 15:11:00
9:31 AM,39.2,21.2,49,29.70,10.0,South,13.8,-,N/A,,Overcast,190,2011-11-11 15:31:00
9:52 AM,39.2,21.2,49,29.69,10.0,South,16.1,20.7,N/A,,Mostly Cloudy,190,2011-11-11 15:52:00
10:12 AM,41.0,21.2,45,29.69,10.0,South,13.8,19.6,N/A,,Scattered Clouds,190,2011-11-11 16:12:00
10:31 AM,42.8,23.0,46,29.67,10.0,South,13.8,20.7,N/A,,Clear,190,2011-11-11 16:31:00
10:51 AM,44.6,24.8,46,29.68,10.0,South,10.4,19.6,N/A,,Clear,190,2011-11-11 16:51:00
11:11 AM,44.6,24.8,46,29.66,10.0,SSW,13.8,17.3,N/A,,Clear,200,2011-11-11 17:11:00
11:31 AM,46.4,24.8,43,29.66,10.0,SSW,10.4,17.3,N/A,,Clear,200,2011-11-11 17:31:00
11:51 AM,46.4,24.8,43,29.65,10.0,SSW,11.5,20.7,N/A,,Clear,200,2011-11-11 17:51:00
12:31 PM,46.4,24.8,43,29.63,10.0,South,9.2,-,N/A,,Clear,190,2011-11-11 18:31:00
12:51 PM,48.2,26.6,43,29.63,10.0,SW,5.8,16.1,N/A,,Clear,230,2011-11-11 18:51:00
1:31 PM,48.2,24.8,40,29.62,10.0,SW,9.2,-,N/A,,Clear,220,2011-11-11 19:31:00
1:51 PM,48.2,24.8,40,29.62,10.0,WSW,9.2,-,N/A,,Clear,240,2011-11-11 19:51:00
2:11 PM,48.2,26.6,43,29.61,10.0,South,9.2,-,N/A,,Clear,190,2011-11-11 20:11:00
2:31 PM,48.2,26.6,43,29.61,10.0,WSW,6.9,-,N/A,,Clear,240,2011-11-11 20:31:00
2:51 PM,48.2,24.8,40,29.60,10.0,SW,6.9,-,N/A,,Clear,230,2011-11-11 20:51:00
3:11 PM,48.2,26.6,43,29.61,10.0,SW,6.9,-,N/A,,Clear,230,2011-11-11 21:11:00
3:31 PM,48.2,26.6,43,29.61,10.0,WSW,6.9,-,N/A,,Clear,240,2011-11-11 21:31:00
3:51 PM,48.2,26.6,43,29.61,10.0,WSW,5.8,-,N/A,,Clear,250,2011-11-11 21:51:00
4:12 PM,48.2,26.6,43,29.61,10.0,SW,4.6,-,N/A,,Clear,230,2011-11-11 22:12:00
4:31 PM,46.4,26.6,46,29.61,10.0,Calm,Calm,-,N/A,,Clear,0,2011-11-11 22:31:00
4:51 PM,44.6,24.8,46,29.61,4.0,Calm,Calm,-,N/A,,Haze,0,2011-11-11 22:51:00
5:11 PM,42.8,24.8,49,29.61,7.0,Calm,Calm,-,N/A,,Clear,0,2011-11-11 23:11:00
5:31 PM,42.8,24.8,49,29.61,5.0,Calm,Calm,-,N/A,,Haze,0,2011-11-11 23:31:00
5:51 PM,41.0,24.8,53,29.61,7.0,Calm,Calm,-,N/A,,Clear,0,2011-11-11 23:51:00
6:12 PM,39.2,24.8,56,29.60,7.0,Calm,Calm,-,N/A,,Clear,0,2011-11-12 00:12:00
6:31 PM,35.6,24.8,65,29.61,7.0,Calm,Calm,-,N/A,,Clear,0,2011-11-12 00:31:00
6:51 PM,33.8,24.8,70,29.61,3.0,Calm,Calm,-,N/A,,Haze,0,2011-11-12 00:51:00
7:11 PM,37.4,24.8,60,29.61,7.0,Calm,Calm,-,N/A,,Clear,0,2011-11-12 01:11:00
7:31 PM,32.0,24.8,75,29.61,7.0,Calm,Calm,-,N/A,,Clear,0,2011-11-12 01:31:00
7:51 PM,28.4,21.2,74,29.60,7.0,Calm,Calm,-,N/A,,Clear,0,2011-11-12 01:51:00
8:11 PM,30.2,24.8,80,29.60,10.0,Calm,Calm,-,N/A,,Clear,0,2011-11-12 02:11:00
8:32 PM,32.0,24.8,75,29.60,10.0,Calm,Calm,-,N/A,,Clear,0,2011-11-12 02:32:00
8:52 PM,33.8,24.8,70,29.60,10.0,SSW,3.5,-,N/A,,Clear,200,2011-11-12 02:52:00
9:11 PM,26.6,21.2,80,29.60,7.0,Calm,Calm,-,N/A,,Clear,0,2011-11-12 03:11:00
9:32 PM,35.6,24.8,65,29.60,10.0,SSW,3.5,-,N/A,,Clear,200,2011-11-12 03:32:00
9:51 PM,37.4,24.8,60,29.59,10.0,Calm,Calm,-,N/A,,Clear,0,2011-11-12 03:51:00
10:11 PM,30.2,23.0,75,29.59,10.0,Calm,Calm,-,N/A,,Clear,0,2011-11-12 04:11:00
10:32 PM,35.6,24.8,65,29.60,10.0,Calm,Calm,-,N/A,,Clear,0,2011-11-12 04:32:00
10:51 PM,35.6,24.8,65,29.60,10.0,Calm,Calm,-,N/A,,Clear,0,2011-11-12 04:51:00
11:11 PM,32.0,24.8,75,29.60,10.0,South,4.6,-,N/A,,Clear,190,2011-11-12 05:11:00
11:32 PM,35.6,24.8,65,29.59,10.0,SSW,3.5,-,N/A,,Clear,210,2011-11-12 05:32:00
11:51 PM,35.6,24.8,65,29.59,10.0,Calm,Calm,-,N/A,,Clear,0,2011-11-12 05:51:00